Location: Hopville
(44.8032°N, 123.1329°W)
Time: 04:08:28
(UTC+00:00)

Cosmos 2237 Rocket - Pass Details

Date: 24 January 2021
Orbit: 833 x 851 km, 71.0° (Epoch: 26 February)

Event Time Altitude Azimuth Distance (km) Brightness Sun altitude
Exits shadow 12:52:23 33° 171° (S) 1,384 3.3 -29.5°
Maximum altitude 12:54:43 56° 110° (ESE) 1,002 2.7 -29.1°
Drops below altitude 10° 13:00:17 10° 33° (NNE) 2,482 5.0 -28.1°
Sets 13:02:46 0° 30° (NNE) 3,423 5.7 -27.7°
